Miscellaneous Local Product
Issued by NWS Hastings, NE

Current Version | Previous Version | Text Only | Print | Product List | Glossary On
Versions: 1 2 3 4 5 6 7 8 9 10 11 12 13 14 15 16 17 18 19 20 21 22 23 24 25 26 27 28 29 30 31 32 33 34 35 36 37 38 39 40 41 42 43 44 45 46 47 48 49 50
599
AXUS43 KGID 261702
MISGRI

GID CWA HOURLY WEATHER ROUNDUP
NATIONAL WEATHER SERVICE HASTINGS NE
1200 PM CDT MON SEP 26 2016

NOTE: "FAIR" INDICATES FEW OR NO CLOUDS BELOW 12,000 FEET WITH NO
SIGNIFICANT WEATHER AND/OR OBSTRUCTIONS TO VISIBILITY.

...SOUTH CENTRAL NEBRASKA...

CITY           SKY/WX    TMP DP  RH WIND       PRES   REMARKS
GRAND ISLAND   SUNNY     70  34  26 W15       30.27F
HASTINGS       SUNNY     71  31  22 W14       30.29F
KEARNEY        SUNNY     68  34  28 W13G18    30.28F
ORD            SUNNY     69  33  26 W13G21    30.24F
YORK           SUNNY     68  36  30 W12       30.27F
AURORA         SUNNY     69  36  30 NW13      30.27F
LEXINGTON      SUNNY     69  30  23 W15       30.30F
HOLDREGE       SUNNY     67  28  23 SW15G22   30.31F
HEBRON         SUNNY     70  35  27 W9        30.28F

...NEBRASKA PANHANDLE...

CITY           SKY/WX    TMP DP  RH WIND       PRES   REMARKS
CHADRON        SUNNY     68  38  33 NW16      30.32S
ALLIANCE       SUNNY     69  37  30 N14G20    30.33F
SCOTTSBLUFF    SUNNY     63  42  46 NW8       30.38R
SIDNEY         SUNNY     68  37  32 NW13G18   30.37F

...WESTERN AND NORTH CENTRAL NEBRASKA...

CITY           SKY/WX    TMP DP  RH WIND       PRES   REMARKS
VALENTINE      SUNNY     68  34  28 W16G24    30.25F
AINSWORTH      SUNNY     68  39  34 NW15      30.25S
ONEILL         SUNNY     70  30  22 W14G20    30.23F
BROKEN BOW     SUNNY     69  32  25 W15       30.26F
IMPERIAL       SUNNY     69  35  28 W12       30.33F
NORTH PLATTE   SUNNY     70  39  32 W14       30.30F
MCCOOK         SUNNY     69  35  28 SW9       30.32F

...EASTERN NEBRASKA...

CITY           SKY/WX    TMP DP  RH WIND       PRES   REMARKS
NORFOLK        SUNNY     70  37  29 W20G26    30.21F
SO SIOUX CITY  SUNNY     69  43  38 NW14      30.17F
TEKAMAH        SUNNY     71  39  31 W18G26    30.19F
COLUMBUS       SUNNY     70  39  32 W13G21    30.24F
ALBION         SUNNY     69  36  29 W14       30.24F
OMAHA EPPLEY   SUNNY     70  40  33 W18       30.21F
OFFUTT AFB     SUNNY     68  44  40 W14       30.21F
MILLARD        SUNNY     69  42  37 NW13      30.21F
LINCOLN        SUNNY     73  37  27 W15       30.25F
NEBRASKA CITY  SUNNY     68  26  20 NW10G21   30.24F
BEATRICE       SUNNY     71  40  32 W10G17    30.25F
FALLS CITY     SUNNY     70  43  37 W9G18     30.24F

...NORTHERN KANSAS...

CITY           SKY/WX    TMP DP  RH WIND       PRES   REMARKS
GOODLAND       SUNNY     69  35  28 W14G24    30.36F
HILL CITY      SUNNY     69  34  27 SW12      30.34F
NORTON         SUNNY     70  21  16 SW9G17    30.32F
PHILLIPSBURG   SUNNY     70  30  23 SW9       30.33F
SMITH CENTER   SUNNY     68  32  26 SW13      30.32F
HAYS           SUNNY     70  28  21 W7        30.34F
RUSSELL        SUNNY     69  35  28 W6        30.33F
CONCORDIA      SUNNY     70  40  33 W12       30.31F
SALINA         SUNNY     69  41  36 CALM      30.33F
TOPEKA         SUNNY     68  45  43 SW6       30.28F



USA.gov is the U.S. government's official web portal to all federal, state and local government web resources and services.